Location: �A�n Sefra
(34.9681°N, 0.4346°E)
Time: 07:00:36
(UTC+00:00)

Cosmos 2278 Rocket - Pass Details

Date: 21 October 2019
Orbit: 840 x 847 km, 71.0° (Epoch: 12 November)

Event Time Altitude Azimuth Distance (km) Brightness Sun altitude
Rises 18:34:24 0° 225° (SW) 3,390 6.1 -16.7°
Reaches altitude 10° 18:37:05 10° 235° (SW) 2,459 5.5 -17.2°
Maximum altitude 18:42:06 33° 298° (WNW) 1,401 3.9 -18.2°
Drops below altitude 10° 18:47:11 10° 2° (N) 2,474 4.6 -19.3°
Sets 18:49:54 0° 12° (NNE) 3,413 5.2 -19.8°
